Vorticity
nan nan nan nan nan nan nan nan nan nan nan nan nan nan nan nan nan nan nan nan nan nan nan nan nan nan nan nan nan nan nan nan nan nan nan nan nan nan nan nan nan nan nan
nan 6 7 7 7 7 6 7 7 7 7 7 7 7 7 7 7 6 6 9 11 9 8 5 5 6 6 6 6 6 6 6 6 6 7 6 6 7 7 7 6 6 nan
nan 6 7 7 7 7 7 7 7 7 7 7 8 8 8 8 7 7 7 7 10 12 11 8 6 6 6 6 6 6 6 6 6 6 6 6 7 6 6 6 6 7 nan
nan 6 6 7 7 7 8 7 7 7 7 7 8 8 8 8 8 9 7 7 6 9 13 13 9 8 9 7 6 6 6 6 6 6 6 6 6 6 6 6 6 6 nan
nan 7 6 7 7 7 7 7 7 8 7 7 7 8 8 8 8 9 8 8 8 6 8 12 12 11 9 9 7 5 7 8 7 5 7 6 6 6 6 6 6 6 nan
nan 7 7 8 8 7 7 8 8 6 7 8 9 9 9 8 9 8 10 10 10 9 7 8 10 13 12 9 8 7 6 8 9 6 6 6 7 7 7 6 6 6 nan
nan 8 8 10 9 8 7 7 8 8 10 11 9 12 11 11 11 9 9 9 9 11 10 10 8 8 12 14 12 10 8 7 8 8 6 6 5 6 7 7 7 7 nan
nan 11 9 10 9 9 10 10 7 7 10 10 6 8 10 12 12 11 10 9 10 11 12 11 8 7 7 11 15 14 11 8 6 8 9 8 6 6 6 7 7 7 nan
nan 13 13 12 12 10 9 11 12 8 6 9 10 4 7 8 9 12 10 9 11 8 9 11 11 11 10 9 11 12 13 14 8 4 10 10 9 8 6 6 7 7 nan
nan 10 11 12 13 11 10 9 10 10 10 7 10 10 7 9 6 6 9 8 8 8 10 11 11 12 11 10 10 10 11 11 13 10 6 8 11 10 10 8 7 7 nan
nan 8 9 10 11 12 11 10 10 9 8 9 8 9 11 8 9 8 7 7 7 8 7 9 10 11 12 12 11 11 10 9 12 14 12 8 9 12 8 5 8 12 nan
nan 6 8 9 9 9 10 11 13 11 9 10 9 8 8 8 11 10 8 9 7 8 8 10 10 10 10 10 9 11 12 12 13 13 14 12 8 10 13 10 10 10 nan
nan 6 9 10 9 9 10 11 13 15 14 12 12 10 10 9 9 9 10 11 9 7 8 8 10 10 9 9 7 9 14 12 13 12 13 14 19 12 12 17 14 6 nan
nan 8 10 9 9 10 11 13 12 12 12 12 13 13 11 10 10 11 10 9 10 7 7 7 7 8 8 8 7 12 13 10 13 14 13 21 31 33 17 7 4 4 nan
nan 9 10 9 9 10 11 13 11 10 10 9 9 11 11 8 9 10 11 11 10 10 9 9 7 5 8 7 10 12 10 12 15 21 18 15 29 40 26 16 13 10 nan
nan 10 10 9 9 10 11 12 11 11 11 10 10 10 10 10 10 10 11 12 12 12 9 8 8 6 10 9 8 10 9 7 8 22 28 15 10 10 12 16 17 14 nan
nan 10 10 10 9 9 11 11 11 11 10 10 10 10 9 11 11 10 11 12 11 12 12 8 6 9 9 8 9 9 8 8 3 5 15 14 9 9 5 5 6 6 nan
nan 10 10 10 10 10 12 11 10 11 10 10 10 10 10 10 10 11 11 10 10 11 12 8 7 9 9 8 8 9 9 9 6 5 7 8 7 9 9 9 7 8 nan
nan 9 10 11 10 10 11 10 10 11 10 10 10 10 10 10 9 10 10 10 10 10 12 11 10 9 8 9 10 8 8 9 7 6 7 8 9 10 12 11 11 12 nan
nan 9 9 10 10 10 9 11 10 10 8 8 9 10 10 11 11 11 9 10 11 10 11 11 9 9 9 10 10 8 9 8 9 8 7 7 7 8 9 9 9 10 nan
nan 10 9 9 10 9 11 12 10 9 9 7 7 7 8 9 10 12 11 10 12 11 10 10 9 9 9 9 9 10 9 9 8 10 9 7 8 7 7 7 6 5 nan
nan 9 10 10 9 11 14 11 11 8 8 8 8 7 7 6 7 8 10 10 13 13 13 11 10 10 9 9 9 9 10 10 8 8 8 8 10 9 10 9 9 10 nan
nan 9 9 9 9 11 10 9 10 9 8 8 8 9 8 7 7 7 6 8 9 12 13 12 11 10 9 9 9 9 9 9 7 7 11 11 10 10 10 8 11 14 nan
nan 7 8 8 9 9 9 7 6 8 8 9 9 9 9 10 7 7 8 8 8 8 8 10 10 10 10 9 8 10 8 9 11 10 11 10 9 10 10 10 12 15 nan
nan 8 10 9 9 10 10 7 5 7 8 8 9 9 7 7 12 10 8 8 9 9 6 7 8 10 11 14 16 10 8 9 12 11 10 9 9 11 11 11 11 13 nan
nan nan nan nan nan nan nan nan nan nan nan nan nan nan nan nan nan nan nan nan nan nan nan nan nan nan nan nan nan nan nan nan nan nan nan nan nan nan nan nan nan nan nan
CAPE
0 0 0 0 0 0 0 2 2 2 1 0 0 0 0 0 0 0 0 0 0 107 154 86 62 34 2 0 0 0 0 0 0 0 2 3 5 5 5 6 5 7 7
0 0 0 0 0 0 0 0 0 0 0 0 0 0 0 0 0 0 0 0 0 10 138 151 69 57 30 6 4 2 1 2 2 2 3 4 6 6 6 6 5 5 6
0 0 0 0 0 0 0 0 0 0 0 0 0 0 0 0 0 0 0 0 0 0 13 170 136 63 66 24 10 8 5 6 8 5 6 4 2 2 7 4 5 5 5
0 0 0 0 0 0 0 0 0 0 0 0 0 0 0 0 0 0 0 0 0 0 0 28 174 161 107 81 19 15 12 4 5 5 4 8 6 5 4 3 3 4 6
0 0 0 0 0 0 0 0 0 0 0 0 0 0 0 0 0 0 0 0 0 0 0 0 13 98 222 240 63 38 19 19 5 5 7 12 9 8 7 7 6 6 5
0 0 0 0 0 0 0 0 0 0 0 0 0 0 0 0 0 0 0 0 0 0 0 0 0 0 0 110 154 48 49 52 25 9 7 8 12 10 9 10 10 9 8
0 0 0 0 0 0 0 0 0 0 0 0 0 0 0 0 0 0 0 0 0 0 0 0 0 0 0 0 138 279 82 62 68 38 6 1 2 11 12 12 13 12 13
0 0 0 0 0 0 0 0 0 0 0 0 0 0 2 0 0 0 0 0 0 0 0 0 0 0 0 0 0 72 322 102 89 97 65 11 1 1 9 15 19 20 17
0 0 2 3 3 1 1 0 0 1 1 0 0 1 11 10 0 0 0 0 0 0 0 0 0 0 0 0 0 0 1 161 124 111 132 165 24 13 6 14 24 26 25
0 0 0 0 0 2 5 2 0 0 1 2 0 0 0 0 1 2 0 0 0 0 0 0 0 0 0 0 0 0 0 0 78 164 166 248 399 65 30 21 14 35 56
0 0 0 0 0 0 1 1 7 1 1 2 0 0 1 2 1 1 1 0 0 0 0 0 0 0 0 0 0 0 0 0 2 76 359 435 368 317 67 62 38 44 113
0 0 0 0 0 0 0 1 1 7 2 1 2 1 0 0 0 1 1 0 1 1 0 0 0 0 0 0 0 0 0 0 1 11 212 522 540 542 302 149 83 82 92
0 0 0 0 0 0 0 2 3 5 2 1 1 2 0 1 2 0 1 4 11 0 0 0 0 0 0 0 0 0 0 0 0 5 20 352 533 477 93 200 104 101 76
0 0 0 0 0 0 0 0 1 1 1 1 0 0 0 1 1 2 5 1 0 0 0 0 0 0 0 1 0 0 0 1 2 6 10 18 80 419 75 74 91 76 62
0 0 0 0 0 0 0 0 0 1 0 0 1 1 0 1 0 1 0 4 9 13 0 0 0 0 1 4 7 4 4 5 9 3 4 10 4 16 22 31 53 38 59
0 0 0 0 0 0 0 0 0 0 0 1 1 0 0 0 0 0 2 2 2 1 6 0 1 1 2 3 3 1 2 1 8 23 7 8 2 3 4 8 9 5 2
0 0 0 0 0 0 0 0 0 0 0 0 0 0 0 0 0 0 1 0 0 0 1 1 1 0 1 3 4 1 0 0 0 11 10 9 5 3 2 1 1 0 0
0 0 0 0 0 0 0 0 0 0 0 0 0 0 0 0 0 0 0 0 0 0 0 1 1 2 1 2 2 1 0 0 0 3 5 3 1 1 0 0 0 0 1
0 0 0 0 0 0 0 0 0 0 1 0 0 0 0 0 0 0 0 0 0 0 0 1 1 2 2 3 1 1 1 1 0 1 2 0 0 0 0 0 0 0 1
0 0 0 0 0 1 1 1 1 1 1 0 0 1 0 0 0 0 0 1 0 0 0 1 2 3 3 1 0 0 1 1 0 0 0 0 0 0 0 0 0 0 0
0 1 3 2 3 2 0 0 0 0 0 0 0 0 0 0 0 1 0 0 0 0 0 0 0 0 0 0 0 0 0 0 0 0 0 0 0 0 0 0 0 0 0
0 0 0 4 4 4 3 2 0 0 0 0 0 0 0 0 0 0 0 0 0 0 0 0 0 0 0 0 0 0 0 0 0 0 0 0 0 0 0 0 0 0 0
0 0 0 0 0 0 0 0 0 0 0 0 0 0 0 0 0 0 0 0 0 0 0 0 0 0 0 0 0 0 0 0 0 0 0 0 0 0 0 0 0 0 0
0 0 0 0 0 0 0 0 0 0 0 0 0 0 0 0 0 0 0 0 0 0 0 0 0 0 0 0 0 0 0 0 0 0 0 0 0 0 0 0 0 0 0
0 0 0 0 0 0 0 0 0 0 0 0 0 0 0 0 0 0 0 0 0 0 0 0 0 0 0 0 0 0 0 0 0 0 0 0 0 0 0 0 0 0 1
0 0 0 0 0 0 0 0 0 0 0 0 0 0 0 0 0 0 0 0 0 0 0 0 0 0 0 0 0 0 0 0 0 0 0 3 1 1 0 0 0 0 0